DMSP 5D-2 F13 DEB, 40583

Orbit data source: Space-Track

DMSP 5D-2 F13 DEB, 40583 is space debris in SSO originally from a launch on Fri, 24 Mar 1995 UTC launched from the Air Force Western Test Range (AFWTR). Debris objects in space refer to the collection of defunct objects orbiting the Earth. Examples of debris include non-operational satellites, rocket bodies, and fragments generated from explosions, collisions, or faulty payload assembly.

Loading next visibility...
Identifier
40583, 1995-015ES
Orbit
SSO
Country
Flag of USUS
Related business
Manufacturer
Unknown
Mission
Spacecraft
Bus & Motor
Unknown
Mass
Unknown
Launch date (UTC)
1995-03-24 (31 years ago)
Launch vehicle
Unknown
Launch site
Air Force Western Test Range (AFWTR)
Object type
Payload
Rocket body
Debris
Shape & HBR
Unknown shape, 0.1 m
Radar Cross Section
Small (<0.1 m²)

Expand to show TLE details & history
Last TLE update: 11 hours ago

TLE from 11 hours ago
0 DMSP 5D-2 F13 DEB
1 40583U 95015ES  26073.50671989  .00016635  00000-0  32935-2 0  9998
2 40583  98.5915 165.8431 0022742  19.4723 340.7341 14.62207803572852
Epoch: 2026-03-14T12:09Z
TLE epoch observation values (Epoch: 2026-03-14T12:09:40.598Z)
Latitude
-0°
Longitude
171.29703°
Altitude
673.865 km
Speed
7.528 km/s
True Right ascension
11h 03m 22s
True Declination
0° 00' 00"
Sunlit
Object was in full shadow at epoch
Visualization orbit readout
Latitude
Unknown
Longitude
Unknown
Altitude
Unknown
Speed
Unknown
Apparent Right ascension
Unknown
Apparent Declination
Unknown
Sunlit
N/A
Visualization observer readout
Local Sidereal Time
03:10:19
Azimuth
Unknown
Elevation
Unknown
Doppler factor
Unknown
Orbital elements
Apogee altitude
699.21 km
Perigee altitude
667.092 km
Semi-major axis
7,061.288 km
Eccentricity
0.00227
Inclination
98.5915°
RAAN
165.8431°
Arg. of periapsis
19.4723°
True anomaly
340.64788°
Mean anomaly
340.7341°
Eccentric anomaly
340.69101°
Mean motion
3.65778 °/min
Orbital period
98.42 mins
BSTAR
0.0032935

Documentation

Showing up to 5 results
|